Time,TemperatureF,DewpointF,PressureIn,WindDirection,WindDirectionDegrees,WindSpeedMPH,WindSpeedGustMPH,Humidity,HourlyPrecipIn,Conditions,Clouds,dailyrainin,SolarRadiationWatts/m^2,SoftwareType,DateUTC
2013-11-06 00:00:00,51.0,45.0,-100.00,SSE,157,10.0,-999.0,80,-99.99,,,-99.99,0.000000,,2013-11-06 05:00:00,
2013-11-06 00:44:00,51.0,45.0,-100.00,SSE,157,10.0,-999.0,80,-99.99,,,-99.99,0.000000,,2013-11-06 05:44:00,
2013-11-06 00:54:00,51.0,45.0,-100.00,SSE,157,10.0,-999.0,80,-99.99,,,-99.99,0.000000,,2013-11-06 05:54:00,
2013-11-06 01:00:00,51.0,45.0,-100.00,SSE,157,10.0,-999.0,77,-99.99,,,-99.99,0.000000,,2013-11-06 06:00:00,
2013-11-06 01:42:00,51.0,45.0,-100.00,SSE,157,10.0,-999.0,77,-99.99,,,-99.99,0.000000,,2013-11-06 06:42:00,
2013-11-06 01:52:00,51.0,45.0,-100.00,SSE,157,10.0,-999.0,77,-99.99,,,-99.99,0.000000,,2013-11-06 06:52:00,
2013-11-06 02:00:00,52.0,43.0,-100.00,South,180,11.0,-999.0,71,-99.99,,,-99.99,0.000000,,2013-11-06 07:00:00,
2013-11-06 02:42:00,52.0,43.0,-100.00,South,180,11.0,-999.0,71,-99.99,,,-99.99,0.000000,,2013-11-06 07:42:00,
2013-11-06 02:52:00,52.0,43.0,-100.00,South,180,11.0,-999.0,71,-99.99,,,-99.99,0.000000,,2013-11-06 07:52:00,
2013-11-06 03:00:00,52.0,43.0,-100.00,SSE,157,11.0,-999.0,69,-99.99,,,-99.99,0.000000,,2013-11-06 08:00:00,
2013-11-06 03:42:00,52.0,43.0,-100.00,SSE,157,11.0,-999.0,69,-99.99,,,-99.99,0.000000,,2013-11-06 08:42:00,
2013-11-06 03:52:00,52.0,43.0,-100.00,SSE,157,11.0,-999.0,69,-99.99,,,-99.99,0.000000,,2013-11-06 08:52:00,
2013-11-06 04:00:00,52.0,44.0,-100.00,South,180,13.0,-999.0,73,-99.99,,,-99.99,0.000000,,2013-11-06 09:00:00,
2013-11-06 04:43:00,52.0,44.0,-100.00,South,180,13.0,-999.0,73,-99.99,,,-99.99,0.000000,,2013-11-06 09:43:00,
2013-11-06 04:53:00,52.0,44.0,-100.00,South,180,13.0,-999.0,73,-99.99,,,-99.99,0.000000,,2013-11-06 09:53:00,
2013-11-06 05:00:00,51.0,45.0,-100.00,South,180,9.0,-999.0,80,-99.99,,,-99.99,0.000000,,2013-11-06 10:00:00,
2013-11-06 05:42:00,51.0,45.0,-100.00,South,180,9.0,-999.0,80,-99.99,,,-99.99,0.000000,,2013-11-06 10:42:00,
2013-11-06 05:53:00,51.0,45.0,-100.00,South,180,9.0,-999.0,80,-99.99,,,-99.99,0.000000,,2013-11-06 10:53:00,
2013-11-06 06:00:00,49.0,46.0,-100.00,SSE,157,10.0,-999.0,87,0.02,,,-99.99,0.000000,,2013-11-06 11:00:00,
2013-11-06 06:42:00,49.0,46.0,-100.00,SSE,157,10.0,-999.0,87,0.02,,,-99.99,0.000000,,2013-11-06 11:42:00,
2013-11-06 06:52:00,49.0,46.0,-100.00,SSE,157,10.0,-999.0,87,0.02,,,-99.99,0.000000,,2013-11-06 11:52:00,
2013-11-06 07:00:00,50.0,46.0,-100.00,South,180,9.0,-999.0,87,0.03,,,-99.99,0.000000,,2013-11-06 12:00:00,
2013-11-06 07:42:00,50.0,46.0,-100.00,South,180,9.0,-999.0,87,0.03,,,-99.99,0.000000,,2013-11-06 12:42:00,
2013-11-06 07:52:00,50.0,46.0,-100.00,South,180,9.0,-999.0,87,0.03,,,-99.99,0.000000,,2013-11-06 12:52:00,
2013-11-06 08:00:00,50.0,46.0,-100.00,South,180,10.0,-999.0,85,-99.99,,,-99.99,4.640000,,2013-11-06 13:00:00,
2013-11-06 08:42:00,50.0,46.0,-100.00,South,180,10.0,-999.0,85,-99.99,,,-99.99,4.640000,,2013-11-06 13:42:00,
2013-11-06 08:52:00,50.0,46.0,-100.00,South,180,10.0,-999.0,85,-99.99,,,-99.99,4.640000,,2013-11-06 13:52:00,
2013-11-06 09:00:00,50.0,48.0,-100.00,SSW,202,9.0,-999.0,91,0.17,,,-99.99,9.280000,,2013-11-06 14:00:00,
2013-11-06 09:42:00,50.0,48.0,-100.00,SSW,202,9.0,-999.0,91,0.17,,,-99.99,9.280000,,2013-11-06 14:42:00,
2013-11-06 09:52:00,50.0,48.0,-100.00,SSW,202,9.0,-999.0,91,0.17,,,-99.99,9.280000,,2013-11-06 14:52:00,
2013-11-06 10:00:00,52.0,50.0,-100.00,South,180,11.0,-999.0,96,0.05,,,-99.99,37.119999,,2013-11-06 15:00:00,
2013-11-06 10:43:00,52.0,50.0,-100.00,South,180,11.0,-999.0,96,0.05,,,-99.99,37.119999,,2013-11-06 15:43:00,
2013-11-06 10:54:00,52.0,50.0,-100.00,South,180,11.0,-999.0,96,0.05,,,-99.99,37.119999,,2013-11-06 15:54:00,
2013-11-06 11:00:00,54.0,53.0,-100.00,SSW,202,16.0,-999.0,94,0.02,,,-99.99,53.360001,,2013-11-06 16:00:00,
2013-11-06 11:43:00,54.0,53.0,-100.00,SSW,202,16.0,-999.0,94,0.02,,,-99.99,53.360001,,2013-11-06 16:43:00,
2013-11-06 11:53:00,54.0,53.0,-100.00,SSW,202,16.0,-999.0,94,0.02,,,-99.99,53.360001,,2013-11-06 16:53:00,
2013-11-06 12:00:00,55.0,53.0,-100.00,SSW,202,16.0,-999.0,92,-99.99,,,-99.99,59.160000,,2013-11-06 17:00:00,
2013-11-06 12:43:00,55.0,53.0,-100.00,SSW,202,16.0,-999.0,92,-99.99,,,-99.99,59.160000,,2013-11-06 17:43:00,
2013-11-06 12:52:00,55.0,53.0,-100.00,SSW,202,16.0,-999.0,92,-99.99,,,-99.99,59.160000,,2013-11-06 17:52:00,
2013-11-06 13:00:00,55.0,54.0,-100.00,SSW,202,16.0,-999.0,93,0.02,,,-99.99,69.599998,,2013-11-06 18:00:00,
2013-11-06 13:42:00,55.0,54.0,-100.00,SSW,202,16.0,-999.0,93,0.02,,,-99.99,69.599998,,2013-11-06 18:42:00,
2013-11-06 13:52:00,55.0,54.0,-100.00,SSW,202,16.0,-999.0,93,0.02,,,-99.99,69.599998,,2013-11-06 18:52:00,
2013-11-06 14:00:00,55.0,54.0,-100.00,SSW,202,14.0,-999.0,95,0.06,,,-99.99,49.880001,,2013-11-06 19:00:00,
2013-11-06 14:42:00,55.0,54.0,-100.00,SSW,202,14.0,-999.0,95,0.06,,,-99.99,49.880001,,2013-11-06 19:42:00,
2013-11-06 14:52:00,55.0,54.0,-100.00,SSW,202,14.0,-999.0,95,0.06,,,-99.99,49.880001,,2013-11-06 19:52:00,
2013-11-06 15:00:00,56.0,54.0,-100.00,South,180,14.0,-999.0,94,0.01,,,-99.99,112.519997,,2013-11-06 20:00:00,
2013-11-06 15:42:00,56.0,54.0,-100.00,South,180,14.0,-999.0,94,0.01,,,-99.99,112.519997,,2013-11-06 20:42:00,
2013-11-06 15:52:00,56.0,54.0,-100.00,South,180,14.0,-999.0,94,0.01,,,-99.99,112.519997,,2013-11-06 20:52:00,
2013-11-06 16:00:00,56.0,53.0,-100.00,SSW,202,18.0,-999.0,91,-99.99,,,-99.99,27.840000,,2013-11-06 21:00:00,
2013-11-06 16:44:00,56.0,53.0,-100.00,SSW,202,18.0,-999.0,91,-99.99,,,-99.99,27.840000,,2013-11-06 21:44:00,
2013-11-06 16:54:00,56.0,53.0,-100.00,SSW,202,18.0,-999.0,91,-99.99,,,-99.99,27.840000,,2013-11-06 21:54:00,
2013-11-06 17:00:00,55.0,53.0,-100.00,SSW,202,16.0,-999.0,92,-99.99,,,-99.99,12.760000,,2013-11-06 22:00:00,
2013-11-06 17:43:00,55.0,53.0,-100.00,SSW,202,16.0,-999.0,92,-99.99,,,-99.99,12.760000,,2013-11-06 22:43:00,
2013-11-06 17:53:00,55.0,53.0,-100.00,SSW,202,16.0,-999.0,92,-99.99,,,-99.99,12.760000,,2013-11-06 22:53:00,
2013-11-06 18:00:00,54.0,52.0,-100.00,SW,225,18.0,-999.0,91,0.01,,,-99.99,0.000000,,2013-11-06 23:00:00,
2013-11-06 18:42:00,54.0,52.0,-100.00,SW,225,18.0,-999.0,91,0.01,,,-99.99,0.000000,,2013-11-06 23:42:00,
2013-11-06 18:53:00,54.0,52.0,-100.00,SW,225,18.0,-999.0,91,0.01,,,-99.99,0.000000,,2013-11-06 23:53:00,
2013-11-06 19:00:00,49.0,46.0,-100.00,West,270,17.0,-999.0,90,0.01,,,-99.99,0.000000,,2013-11-07 00:00:00,
2013-11-06 19:42:00,49.0,46.0,-100.00,West,270,17.0,-999.0,90,0.01,,,-99.99,0.000000,,2013-11-07 00:42:00,
2013-11-06 19:52:00,49.0,46.0,-100.00,West,270,17.0,-999.0,90,0.01,,,-99.99,0.000000,,2013-11-07 00:52:00,
2013-11-06 21:00:00,43.0,39.0,-100.00,West,270,12.0,-999.0,84,-99.99,,,-99.99,0.000000,,2013-11-07 02:00:00,
2013-11-06 21:53:00,43.0,39.0,-100.00,West,270,12.0,-999.0,84,-99.99,,,-99.99,0.000000,,2013-11-07 02:53:00,
2013-11-06 22:00:00,43.0,38.0,-100.00,WNW,292,11.0,-999.0,82,-99.99,,,-99.99,0.000000,,2013-11-07 03:00:00,
2013-11-06 22:44:00,43.0,38.0,-100.00,WNW,292,11.0,-999.0,82,-99.99,,,-99.99,0.000000,,2013-11-07 03:44:00,
2013-11-06 22:55:00,43.0,38.0,-100.00,WNW,292,11.0,-999.0,82,-99.99,,,-99.99,0.000000,,2013-11-07 03:55:00,
2013-11-06 23:00:00,42.0,36.0,-100.00,WNW,292,12.0,-999.0,79,-99.99,,,-99.99,0.000000,,2013-11-07 04:00:00,
2013-11-06 23:43:00,42.0,36.0,-100.00,WNW,292,12.0,-999.0,79,-99.99,,,-99.99,0.000000,,2013-11-07 04:43:00,
2013-11-06 23:53:00,42.0,36.0,-100.00,WNW,292,12.0,-999.0,79,-99.99,,,-99.99,0.000000,,2013-11-07 04:53:00,